Flag for U.S.A. Weather past 2 weeks in Salt Lake City, Utah, U.S.A.

61 °F

Passing clouds.

Feels Like: 61 °F
Forecast: 53 / 71 °F
Wind: 6 mph from Southwest

Location: Salt Lake City International Airport

Current Time: Oct 4, 2015 at 10:53:16 PM

Latest Report: Oct 4, 2015 at 9:53 PM

Visibility: 10 mi

Pressure: 29.76 "Hg (25.48 "Hg at 1312m altitude)

Humidity: 72%

Dew point: 52 °F

Location of Salt Lake CityLocation

Historic Weather in Salt Lake City — Graph


Salt Lake City temperature yesterday

Maximum temperature yesterday: 65 °F (at 4:53 PM)
Minimum temperature yesterday: 55 °F (at 5:53 AM)
Average temperature yesterday: 59 °F

Past Weeks' High & Low Weather Summary

High93 °F (Sep 25, 3:53 PM)93% (Oct 3, 6:53 AM)30.10 "Hg (Oct 3, 6:53 AM)
Low50 °F (Sep 20, 5:53 AM)10% (Sep 25, 2:53 PM)29.64 "Hg (Oct 1, 9:53 PM)
Average71 °F41%29.86 "Hg
* Reported Sep 19 8:53 PM — Oct 4 8:53 PM, Salt Lake City, Weather by CustomWeather, © 2015

Note: Actual official high and low records may vary slightly from our data, if they occured in-between our weather recording intervals... More about our weather records


Salt Lake City weather history for previous 24 hours

Time TempWeatherWind HumidityBarometerVisibility
8:53 PM
Sun, Oct 4
63 °FPassing clouds.5 mph68%29.75 "Hg10 mi
7:53 PM64 °FPassing clouds.7 mph65%29.75 "Hg10 mi
6:53 PM67 °FScattered clouds.12 mph57%29.72 "Hg10 mi
5:53 PM70 °FScattered clouds.12 mph51%29.72 "Hg10 mi
4:53 PM73 °FScattered clouds.10 mph37%29.72 "Hg10 mi
3:53 PM71 °FScattered clouds.8 mph38%29.72 "Hg10 mi
2:53 PM71 °FScattered clouds.10 mph42%29.73 "Hg10 mi
1:53 PM69 °FScattered clouds.7 mph45%29.75 "Hg10 mi
12:53 PM67 °FScattered clouds.6 mph53%29.78 "Hg10 mi
11:53 AM64 °FPartly sunny.6 mph58%29.79 "Hg10 mi
10:53 AM62 °FPartly sunny.5 mph58%29.79 "Hg10 mi
9:53 AM61 °FBroken clouds.10 mph60%29.77 "Hg10 mi
8:53 AM57 °FBroken clouds.12 mph69%29.76 "Hg10 mi
7:53 AM53 °FPassing clouds.10 mph80%29.78 "Hg10 mi
6:53 AM52 °FPartly cloudy.6 mph80%29.76 "Hg10 mi
5:53 AM52 °FPassing clouds.No wind83%29.73 "Hg10 mi
4:53 AM52 °FPassing clouds.6 mph80%29.72 "Hg10 mi
3:53 AM56 °FPassing clouds.8 mph67%29.70 "Hg10 mi
2:53 AM57 °FPassing clouds.9 mph67%29.70 "Hg10 mi
1:53 AM57 °FPassing clouds.8 mph69%29.69 "Hg10 mi
12:53 AM57 °FPassing clouds.6 mph67%29.70 "Hg10 mi
11:53 PM
Sat, Oct 3
58 °FPartly cloudy.9 mph67%29.71 "Hg10 mi
10:53 PM58 °FPassing clouds.10 mph67%29.71 "Hg10 mi
Weather by CustomWeather, © 2015

See weather overviewHow to use our weather pages